Location: Newark
(13.0328°N, 9.6142°E)
Time: 01:32:20
(UTC+00:00)

Envisat - Pass Details

Date: 29 October 2019
Orbit: 764 x 766 km, 98.1° (Epoch: 12 November)

Event Time Altitude Azimuth Distance (km) Brightness Sun altitude
Rises 18:25:48 0° 191° (S) 3,221 6.5 -22.3°
Reaches altitude 10° 18:28:24 10° 202° (SSW) 2,296 5.8 -22.9°
Maximum altitude 18:32:39 27° 260° (W) 1,423 5.1 -23.9°
Drops below altitude 10° 18:36:55 10° 318° (NW) 2,296 5.9 -24.9°
Sets 18:39:32 0° 330° (NNW) 3,222 6.5 -25.6°
